Location: Saint Louis
(38.6272°N, 90.1978°W)
Time: 01:53:03
(UTC-05:00)

ISS - Pass Details

Date: 16 March 2013
Orbit: 402 x 404 km, 51.6° (Epoch: 26 May)

Event Time Altitude Azimuth Distance (km) Brightness Sun altitude
Exits shadow 05:24:03 69° 89° (E) 449 -3.1 -21.3°
Drops below altitude 10° 05:27:05 10° 54° (NE) 1,484 0.5 -20.8°
Sets 05:29:10 0° 53° (NE) 2,342 1.7 -20.4°
